Piloten Info

Wichtige Hinweise:

  • Neue Tower Frequenz 122,330 kHz - keine Landung ohne Funkkontakt
  • PPR Betrieb
  • Temporäre Hindernisse (Baukräne) nahe dem Flugplatz durch Bauarbeiten entlang der Nürnberger Straße (Östliche Seite).
  • Starts auf RWY 09 sind nicht gestattet. Start generell auf RWY 27. Bei Planung Rückenwinde berücksichtigen!
  • Bei Anflügen auf RWY 27 sind Hindernisse vorhanden, aus diesem Grund die versetzte Schwelle27!
  • Der Flugverein Neumarkt führt seine Starts generell auf RWY 27 und Landungen auf RWY09 durch.
  • Es besteht keine Tankmöglichkeit.

Diese Hinweis sind als Ergänzung / Hilfe zur regulären Flugplanung gedacht.

Auszüge aus AIP VFR ohne Gewähr - es gelten die offiziellen Veröffentlichungen.




Wind Infos (noch im Aufbau)

Wind Speed
Wind Direction


METAR Informationen der nächstgelegenen Flughäfen


EDDN / Flughafen Nürnberg „Albrecht Dürer“

EDDN 280250Z 11004KT 8000 BKN003 M03/M03 Q1020

ETIC / Fliegerhorst Grafenwöhr AAF

ETIC 280256Z AUTO 00000KT 0600 R14/0600V0700 FZFG VV001 M02/M03 A3011 RMK AO2 SLP223 T10181029 56003 $

ETIH / Fliegerhorst Hohenfels AAF

ETIH 280256Z AUTO 00000KT 0600 FZFG VV001 M03/M04 A3013 RMK AO2 SLP234 P0000 60000 T10281042 58002 RVRNO $